This is the latest recevied weather packets stored in our database for station/object N1SU-13. If no packets are shown the sender has not sent any weather packets the latest 10 day(s).
| Time | Temp. | Humidity | Pressure | Rain* | Wind** | Luminosity | Snow |
|---|---|---|---|---|---|---|---|
| 1778028656 | 20° C | 60% | 1013.2 hPa | - | - | - | - |
| 1778027974 | 19.44° C | 62% | 1013.3 hPa | - | - | - | - |
| 1778027329 | 18.89° C | 63% | 1013.5 hPa | - | - | - | - |
| 1778026648 | 18.33° C | 64% | 1013.5 hPa | - | - | - | - |
| 1778026016 | 18.33° C | 66% | 1013.6 hPa | - | - | - | - |
| 1778025374 | 17.78° C | 65% | 1013.9 hPa | - | - | - | - |
| 1778024772 | 17.78° C | 67% | 1014 hPa | - | - | - | - |
| 1778024082 | 17.22° C | 68% | 1014 hPa | - | - | - | - |
| 1778023517 | 16.67° C | 70% | 1014.2 hPa | - | - | - | - |
| 1778022957 | 17.22° C | 68% | 1014.2 hPa | - | - | - | - |
| 1778022297 | 17.22° C | 67% | 1014 hPa | - | - | - | - |
| 1778021700 | 16.67° C | 69% | 1014.2 hPa | - | - | - | - |
| 1778021082 | 16.67° C | 69% | 1014.4 hPa | - | - | - | - |
| 1778020494 | 16.67° C | 69% | 1014.4 hPa | - | - | - | - |
| 1778019803 | 16.11° C | 70% | 1014.6 hPa | - | - | - | - |
| 1778019208 | 16.11° C | 71% | 1014.7 hPa | - | - | - | - |
| 1778018579 | 16.11° C | 71% | 1014.8 hPa | - | - | - | - |
| 1778017918 | 15.56° C | 72% | 1014.9 hPa | - | - | - | - |
| 1778017265 | 15° C | 73% | 1015 hPa | - | - | - | - |
| 1778016576 | 15° C | 74% | 1015 hPa | - | - | - | - |
| 1778015900 | 15° C | 75% | 1015 hPa | - | - | - | - |
| 1778015261 | 15° C | 74% | 1015 hPa | - | - | - | - |
| 1778014644 | 14.44° C | 75% | 1015 hPa | - | - | - | - |
| 1778013969 | 14.44° C | 76% | 1015.2 hPa | - | - | - | - |
| 1778013326 | 14.44° C | 77% | 1015.2 hPa | - | - | - | - |
* Rain since midnight (hover to see other rain measurements)
** Current wind speed in m/s (hover to see current wind gust speed)